Location: La Brionne
(46.1728°N, 1.7849°E)
Time: 03:54:56
(UTC+00:00)

TIGRISAT - Visible Passes

Search period start: 29 March 2023 00:00
Search period end: 08 April 2023 00:00
Orbit: 601 x 682 km, 97.7° (Epoch: 28 March)

Date Brightness Start Highest point End Pass type
(mag) Time Alt. Az. Time Alt. Az. Time Alt. Az.
29 Mar ? 03:31:39 10° ESE 03:34:51 20° ENE 03:38:08 10° NNE visible
29 Mar ? 05:06:49 10° S 05:11:04 49° W 05:15:28 10° NNW visible
30 Mar ? 03:54:40 10° SE 03:58:36 32° ENE 04:02:38 10° N visible
30 Mar ? 18:55:32 10° NNW 18:59:00 21° WNW 19:02:27 10° WSW visible
31 Mar ? 04:18:06 10° SSE 04:22:25 55° ENE 04:26:52 10° N visible
31 Mar ? 19:20:29 10° NNW 19:22:40 13° WNW 19:24:50 10° W visible
01 Apr ? 03:08:33 10° E 03:10:29 13° ENE 03:12:24 10° NNE visible
01 Apr ? 04:41:54 10° SSE 04:46:20 86° WSW 04:50:54 10° NNW visible
02 Apr ? 03:30:51 10° ESE 03:34:06 20° ENE 03:37:26 10° NNE visible
03 Apr ? 03:53:51 10° SE 03:57:50 32° ENE 04:01:54 10° N visible
03 Apr ? 18:54:47 10° NNW 18:58:15 21° WNW 19:01:41 10° WSW visible
04 Apr ? 04:17:16 10° SSE 04:21:38 55° ENE 04:26:07 10° N visible
04 Apr ? 19:19:42 10° NNW 19:21:53 13° WNW 19:24:03 10° W visible
05 Apr ? 03:07:41 10° E 03:09:40 13° ENE 03:11:40 10° NNE visible
05 Apr ? 04:41:01 10° SSE 04:45:31 87° WSW 04:50:09 10° NNW visible
06 Apr ? 03:29:58 10° ESE 03:33:17 20° ENE 03:36:39 10° NNE visible
07 Apr ? 03:52:57 10° SE 03:56:59 33° ENE 04:01:05 10° N visible
07 Apr ? 18:53:56 10° NNW 18:57:24 21° WNW 19:00:50 10° WSW visible
